Location: Newark
(30.1000°N, 109.4667°E)
Time: 16:41:37
(UTC+00:00)

Vanguard 2 Rocket - Pass Details

Date: 21 February 2020
Orbit: 554 x 3326 km, 32.9° (Epoch: 04 April)

Event Time Altitude Azimuth Distance (km) Brightness Sun altitude
Rises 12:46:34 0° 248° (WSW) 7,284 12.4 -29.2°
Reaches altitude 10° 12:51:41 10° 248° (WSW) 6,147 11.8 -30.3°
Maximum altitude 13:10:28 86° 162° (SSE) 2,409 8.7 -34.3°
Enters shadow 13:13:32 63° 81° (E) 2,405 8.5 -35.0°
